EW3608 Weather Reports


Display with metric or nautical units.
time (UTC)temp
F
wind
direction
speed
MPH
gust
MPH
rain 1hr
in
rain 24hr
in
rain mn
in
humidity
%
barometer
mb
20260831112005 62 312 0.0 2.0 0.00 0.07 0.00 60 1019.9
20260831111508 62 201 0.0 2.0 0.00 0.07 0.00 60 1019.8
20260831111007 62 236 0.0 2.0 0.00 0.07 0.00 61 1019.9
20260831110508 62 232 1.0 2.0 0.00 0.07 0.00 59 1019.9
20260831110003 62 146 0.0 2.0 0.00 0.07 0.00 59 1019.8
20260831105506 62 153 0.0 2.0 0.00 0.07 0.00 59 1019.9
20260831105007 62 153 0.0 2.0 0.00 0.07 0.00 58 1019.8
20260831104526 62 154 1.0 2.0 0.00 0.07 0.00 56 1019.7
20260831104007 61 205 0.0 2.0 0.00 0.07 0.00 61 1019.7
20260831103505 61 205 0.0 2.0 0.00 0.07 0.00 62 1019.7
20260831103008 61 104 0.0 2.0 0.00 0.07 0.00 63 1019.6
20260831102508 61 145 0.0 2.0 0.00 0.07 0.00 63 1019.7
20260831102005 61 108 0.0 2.0 0.00 0.07 0.00 65 1019.6
20260831101507 61 103 0.0 3.0 0.00 0.07 0.00 65 1019.6
20260831101005 61 117 0.0 3.0 0.00 0.07 0.00 66 1019.6
20260831100509 61 172 0.0 2.0 0.00 0.07 0.00 66 1019.6
20260831100009 61 172 0.0 2.0 0.00 0.07 0.00 65 1019.4
20260831095512 61 169 0.0 2.0 0.00 0.07 0.00 64 1019.3
20260831095007 62 168 0.0 2.0 0.00 0.07 0.00 65 1019.2
20260831094514 62 190 0.0 2.0 0.00 0.07 0.00 66 1019.2
20260831094004 62 199 0.0 2.0 0.00 0.07 0.00 66 1019.2
20260831093504 62 202 0.0 2.0 0.00 0.07 0.00 65 1019.1
20260831090004 63 215 0.0 2.0 0.00 0.07 0.00 62 1019.1
20260831085503 63 219 0.0 1.0 0.00 0.07 0.00 61 1019.1
20260831085006 64 187 0.0 2.0 0.00 0.07 0.00 61 1019.2
20260831084515 64 186 0.0 2.0 0.00 0.07 0.00 60 1019.2
20260831084007 64 192 0.0 2.0 0.00 0.07 0.00 59 1019.2
20260831083508 64 192 0.0 2.0 0.00 0.07 0.00 56 1019.3
20260831083014 65 188 0.0 2.0 0.00 0.07 0.00 56 1019.3
20260831082506 65 188 0.0 2.0 0.00 0.07 0.00 55 1019.4
20260831082003 66 188 0.0 2.0 0.00 0.07 0.00 54 1019.3
20260831081508 66 188 0.0 2.0 0.00 0.07 0.00 53 1019.4
20260831081010 67 188 0.0 2.0 0.00 0.07 0.00 51 1019.5
20260831080507 67 188 0.0 2.0 0.00 0.07 0.00 50 1019.5
20260831080018 68 185 0.0 2.0 0.00 0.07 0.00 48 1019.6
20260831075513 68 185 0.0 2.0 0.00 0.07 0.00 49 1019.6
20260831075007 68 185 0.0 2.0 0.00 0.07 0.00 48 1019.5
20260831074514 68 185 0.0 2.0 0.00 0.07 0.00 46 1019.6
20260831074006 68 164 0.0 1.0 0.00 0.07 0.00 46 1019.7
20260831073504 68 145 1.0 2.0 0.00 0.07 0.00 47 1019.8
20260831073011 69 155 1.0 2.0 0.00 0.07 0.00 46 1019.9
20260831072510 69 114 0.0 3.0 0.00 0.07 0.00 44 1019.9
20260831072008 69 186 0.0 3.0 0.00 0.07 0.00 44 1019.9
20260831071519 69 206 1.0 4.0 0.00 0.07 0.00 44 1019.9
20260831071005 69 275 1.0 4.0 0.00 0.07 0.00 44 1019.9
20260831070504 69 277 0.0 2.0 0.00 0.07 0.00 47 1019.9
20260831070007 69 285 0.0 2.0 0.00 0.07 0.00 46 1020.0
20260831065506 68 320 0.0 2.0 0.00 0.07 0.00 46 1020.1
20260831065008 68 302 0.0 3.0 0.00 0.07 0.00 49 1020.1
20260831064522 68 5 0.0 3.0 0.00 0.07 0.00 49 1019.9
20260831064010 68 342 1.0 2.0 0.00 0.07 0.00 50 1020.0
20260831063508 68 79 0.0 3.0 0.00 0.07 0.00 49 1020.1
20260831063004 68 57 1.0 3.0 0.00 0.07 0.00 48 1020.0
20260831062504 69 46 1.0 3.0 0.00 0.07 0.00 46 1020.0
20260831062005 69 36 0.0 2.0 0.00 0.07 0.00 47 1020.1
20260831061511 69 144 0.0 2.0 0.00 0.07 0.00 46 1020.1
20260831061014 70 105 0.0 2.0 0.00 0.07 0.00 45 1020.1
20260831060512 70 194 0.0 3.0 0.00 0.07 0.00 44 1020.1
20260831060021 70 298 1.0 5.0 0.00 0.07 0.00 44 1020.1
20260831055511 70 161 2.0 5.0 0.00 0.07 0.07 43 1020.1
20260831055003 70 334 1.0 10.0 0.00 0.07 0.07 43 1020.2
20260831054506 70 258 2.0 10.0 0.00 0.07 0.07 43 1020.2
20260831054004 70 232 3.0 12.0 0.00 0.07 0.07 43 1020.3
20260831053508 71 169 4.0 12.0 0.00 0.07 0.07 43 1020.3
20260831053014 71 154 3.0 10.0 0.00 0.07 0.07 42 1020.2
20260831052513 71 167 3.0 14.0 0.00 0.07 0.07 42 1020.4
20260831052011 71 205 2.0 14.0 0.00 0.07 0.07 42 1020.7
20260831051525 72 282 2.0 12.0 0.00 0.07 0.07 41 1021.0
20260831051003 72 246 3.0 12.0 0.00 0.07 0.07 41 1021.3
20260831050503 73 198 3.0 13.0 0.00 0.07 0.07 41 1021.3
20260831050013 73 350 5.0 14.0 0.00 0.07 0.07 40 1021.6
20260831045507 73 187 5.0 14.0 0.00 0.07 0.07 40 1021.7
20260831045008 74 192 6.0 18.0 0.00 0.07 0.07 41 1021.5
20260831044523 74 294 6.0 18.0 0.00 0.07 0.07 40 1021.6
20260831044011 74 194 5.0 18.0 0.00 0.07 0.07 40 1021.6
20260831043510 73 267 5.0 18.0 0.00 0.07 0.07 41 1021.6
20260831043004 71 346 5.0 17.0 0.00 0.07 0.07 43 1021.4
20260831042503 68 173 3.0 13.0 0.00 0.07 0.07 49 1021.3
20260831042007 66 248 3.0 8.0 0.00 0.07 0.07 56 1021.3
20260831041513 65 203 0.0 2.0 0.00 0.07 0.07 62 1021.1
20260831041012 65 207 0.0 2.0 0.00 0.07 0.07 63 1021.0
20260831040512 65 207 0.0 2.0 0.00 0.07 0.07 63 1020.7
20260831040021 66 207 0.0 2.0 0.00 0.07 0.07 62 1020.5
20260831035511 66 207 0.0 2.0 0.00 0.07 0.07 62 1020.4
20260831035003 66 207 0.0 2.0 0.00 0.07 0.07 1020.3
20260831034507 66 207 0.0 2.0 0.00 0.07 0.07 1020.3
20260831034007 66 220 0.0 2.0 0.00 0.07 0.07 1020.2
20260831033511 66 98 0.0 2.0 0.00 0.07 0.07 1020.2
20260831033020 67 98 0.0 2.0 0.00 0.07 0.07 61 1020.3
20260831032510 67 115 0.0 2.0 0.00 0.07 0.07 61 1020.3
20260831032012 67 115 0.0 2.0 0.00 0.07 0.07 59 1020.3
20260831031530 67 115 0.0 2.0 0.00 0.07 0.07 60 1020.2
20260831031003 67 119 0.0 2.0 0.00 0.07 0.07 1020.2
20260831030506 67 139 0.0 2.0 0.00 0.07 0.07 1020.1
20260831030010 67 175 0.0 2.0 0.00 0.07 0.07 1020.1
20260831025510 67 111 0.0 2.0 0.00 0.07 0.07 1020.0
20260831025011 67 117 0.0 2.0 0.00 0.07 0.07 1019.9
20260831024526 67 107 1.0 2.0 0.00 0.07 0.07 1019.9
20260831024014 67 103 1.0 2.0 0.00 0.07 0.07 59 1019.8
20260831023516 68 49 0.0 2.0 0.00 0.07 0.07 59 1019.8
20260831023005 68 92 0.0 2.0 0.00 0.07 0.07 59 1019.8
20260831022506 68 51 0.0 2.0 0.00 0.07 0.07 58 1019.8
20260831022006 68 104 0.0 2.0 0.00 0.07 0.07 57 1019.7
20260831021516 69 112 0.0 2.0 0.00 0.07 0.07 57 1019.5
20260831021012 69 132 0.0 6.0 0.00 0.07 0.07 57 1019.4
20260831020514 69 352 0.0 6.0 0.00 0.07 0.07 57 1019.4
20260831020027 69 119 0.0 2.0 0.00 0.07 0.07 57 1019.4
20260831015517 69 94 0.0 2.0 0.00 0.07 0.07 55 1019.4
20260831015005 70 33 0.0 2.0 0.00 0.07 0.07 55 1019.4
20260831014510 70 33 0.0 2.0 0.00 0.07 0.07 54 1019.4
20260831014010 71 69 0.0 2.0 0.00 0.07 0.07 53 1019.4
20260831013512 71 109 0.0 2.0 0.00 0.07 0.07 51 1019.4
20260831013038 71 109 0.0 2.0 0.00 0.07 0.07 50 1019.3
20260831012513 72 167 0.0 2.0 0.00 0.07 0.07 49 1019.3
20260831012012 72 231 1.0 2.0 0.00 0.07 0.07 49 1019.3
20260831011526 73 34 0.0 2.0 0.00 0.07 0.07 47 1019.1
20260831011003 73 150 0.0 2.0 0.00 0.07 0.07 46 1019.2
20260831010508 74 213 1.0 2.0 0.00 0.07 0.07 44 1019.2
20260831010017 75 60 0.0 8.0 0.00 0.07 0.07 43 1019.0
20260831005513 75 34 2.0 8.0 0.00 0.07 0.07 42 1019.1
20260831005015 76 350 1.0 5.0 0.00 0.07 0.07 40 1019.0
20260831004527 76 232 0.0 5.0 0.00 0.07 0.07 40 1019.1
20260831004016 76 213 0.0 10.0 0.00 0.07 0.07 41 1019.1
20260831003517 77 165 2.0 10.0 0.00 0.07 0.07 37 1019.2
20260831003027 77 179 2.0 5.0 0.00 0.07 0.07 39 1019.2
20260831002514 78 144 2.0 8.0 0.00 0.07 0.07 38 1019.3
20260831002014 79 161 1.0 8.0 0.00 0.07 0.07 35 1019.3
20260831001525 79 167 1.0 5.0 0.00 0.07 0.07 35 1019.2
20260831001016 79 262 1.0 7.0 0.00 0.07 0.07 35 1019.3
20260831000516 79 263 2.0 7.0 0.00 0.07 0.07 35 1019.4
20260831000026 79 57 0.0 5.0 0.00 0.07 0.07 34 1019.2
20260830235515 79 211 1.0 12.0 0.00 0.07 0.07 35 1019.1
20260830235014 79 221 2.0 12.0 0.00 0.07 0.07 35 1018.9
20260830234528 80 204 6.0 14.0 0.00 0.07 0.07 34 1018.8
20260830234010 80 194 5.0 14.0 0.00 0.07 0.07 34 1019.0
20260830233513 81 255 4.0 13.0 0.00 0.07 0.07 33 1019.0
20260830233024 80 184 4.0 13.0 0.00 0.07 0.07 35 1018.9
20260830232516 80 188 4.0 14.0 0.00 0.07 0.07 34 1018.9
20260830232014 78 173 4.0 14.0 0.00 0.07 0.07 35 1018.8
20260830231532 78 227 2.0 10.0 0.00 0.07 0.07 36 1018.9
20260830231017 78 209 4.0 12.0 0.00 0.07 0.07 35 1018.8
20260830230516 78 191 4.0 15.0 0.00 0.07 0.07 36 1018.7
20260830230020 78 255 3.0 17.0 0.00 0.07 0.07 36 1018.7
20260830225511 77 217 5.0 17.0 0.00 0.07 0.07 37 1018.6
20260830225015 76 215 5.0 13.0 0.00 0.07 0.07 37 1018.7
20260830224528 76 225 4.0 13.0 0.00 0.07 0.07 38 1018.7
20260830224019 76 199 4.0 12.0 0.00 0.07 0.07 38 1018.8
20260830223515 75 190 4.0 12.0 0.00 0.07 0.07 38 1018.9
20260830223027 75 267 5.0 12.0 0.00 0.07 0.07 39 1018.9
20260830222513 75 221 1.0 18.0 0.00 0.07 0.07 40 1019.0
20260830222011 75 242 2.0 18.0 0.00 0.07 0.07 39 1019.1
20260830221524 74 231 7.0 17.0 0.00 0.07 0.07 39 1019.2
20260830221013 74 161 4.0 14.0 0.00 0.07 0.07 41 1019.2
20260830220515 74 235 2.0 6.0 0.00 0.07 0.07 40 1019.4
20260830220036 74 269 2.0 11.0 0.00 0.07 0.07 41 1019.4
20260830215517 73 234 4.0 11.0 0.00 0.07 0.07 41 1019.4
20260830215014 73 228 1.0 13.0 0.00 0.07 0.07 44 1019.8
20260830214529 73 251 4.0 14.0 0.00 0.07 0.07 43 1019.6
20260830214011 72 231 5.0 16.0 0.00 0.07 0.07 43 1019.9
20260830213503 72 167 7.0 16.0 0.00 0.07 0.07 44 1020.1
20260830213003 71 223 2.0 16.0 0.00 0.07 0.07 46 1020.1
20260830212504 71 242 5.0 16.0 0.01 0.07 0.07 45 1020.3
20260830212003 71 300 4.0 13.0 0.01 0.07 0.07 48 1020.3
20260830211512 70 323 3.0 13.0 0.06 0.07 0.07 54 1020.5
20260830211010 69 255 2.0 11.0 0.06 0.09 0.07 55 1020.5
20260830210509 67 323 4.0 11.0 0.06 0.11 0.07 59 1020.4
20260830210003 66 136 2.0 9.0 0.06 0.11 0.07 66 1020.6
20260830205502 65 65 1.0 5.0 0.06 0.11 0.07 71 1020.6
20260830205002 64 326 1.0 3.0 0.06 0.11 0.07 71 1020.8
20260830204504 64 247 0.0 2.0 0.06 0.11 0.07 74 1020.8
20260830204004 64 251 1.0 4.0 0.06 0.11 0.07 71 1020.9
20260830203504 65 110 0.0 12.0 0.06 0.11 0.07 69 1020.9
20260830203023 66 305 1.0 13.0 0.06 0.11 0.07 67 1020.8
20260830202510 68 298 6.0 13.0 0.05 0.10 0.06 60 1021.3
20260830202003 71 219 4.0 13.0 0.06 0.10 0.06 61 1021.0
20260830201505 74 253 3.0 9.0 0.01 0.05 0.01 58 1020.9
20260830201005 74 251 0.0 2.0 0.01 0.05 0.01 58 1020.3
20260830200504 73 329 0.0 2.0 0.01 0.05 0.01 58 1019.9
20260830200007 73 352 0.0 2.0 0.01 0.05 0.01 60 1019.6
20260830195507 73 338 0.0 2.0 0.01 0.05 0.01 65 1019.4
20260830195012 72 97 0.0 2.0 0.01 0.05 0.01 63 1019.1
20260830194523 73 97 0.0 2.0 0.01 0.05 0.01 65 1018.9
20260830194004 73 61 0.0 2.0 0.01 0.05 0.01 61 1018.7
20260830193504 74 257 0.0 5.0 0.01 0.05 0.01 61 1018.7
20260830193005 75 255 0.0 8.0 0.01 0.05 0.01 57 1018.5
20260830192504 78 40 4.0 10.0 0.01 0.05 0.01 46 1018.4
20260830192008 81 9 3.0 10.0 0.00 0.04 0.00 41 1018.4
20260830191515 83 247 0.0 2.0 0.00 0.04 0.00 35 1018.2
20260830191012 83 83 1.0 3.0 0.00 0.04 0.00 33 1017.8
20260830190516 84 187 1.0 6.0 0.00 0.04 0.00 33 1017.5
20260830190004 84 109 3.0 6.0 0.00 0.04 0.00 32 1017.4
20260830185504 84 207 1.0 7.0 0.00 0.04 0.00 33 1017.3
20260830185004 84 155 2.0 7.0 0.00 0.04 0.00 34 1017.2
20260830184508 83 155 2.0 9.0 0.00 0.04 0.00 34 1017.4
20260830184007 83 94 1.0 9.0 0.00 0.04 0.00 33 1017.4
20260830183507 83 140 2.0 8.0 0.00 0.04 0.00 33 1017.5
20260830183021 84 121 2.0 6.0 0.00 0.04 0.00 32 1017.7
20260830182514 84 123 1.0 4.0 0.00 0.04 0.00 31 1017.7
20260830182016 84 146 1.0 4.0 0.00 0.04 0.00 32 1017.7
20260830181531 84 116 1.0 4.0 0.00 0.04 0.00 33 1017.8
20260830181019 84 105 1.0 4.0 0.00 0.04 0.00 33 1017.9
20260830180503 84 148 1.0 3.0 0.00 0.04 0.00 34 1017.9
20260830180012 84 101 0.0 3.0 0.00 0.04 0.00 34 1018.1
20260830175509 83 72 1.0 3.0 0.00 0.04 0.00 34 1018.1
20260830175010 83 157 1.0 3.0 0.00 0.04 0.00 32 1018.2
20260830174530 84 182 1.0 2.0 0.00 0.04 0.00 33 1018.3
20260830174016 83 351 1.0 2.0 0.00 0.04 0.00 32 1018.4
20260830173520 83 199 0.0 3.0 0.00 0.04 0.00 33 1018.4
20260830173050 82 9 0.0 3.0 0.00 0.04 0.00 34 1018.4
20260830172506 82 295 0.0 4.0 0.00 0.04 0.00 33 1018.5
20260830172008 81 226 0.0 4.0 0.00 0.04 0.00 35 1018.5
20260830171518 80 189 1.0 5.0 0.00 0.04 0.00 34 1018.5
20260830171012 80 96 1.0 7.0 0.00 0.04 0.00 35 1018.5
20260830170516 80 22 2.0 7.0 0.00 0.04 0.00 35 1018.5
20260830170030 80 265 2.0 5.0 0.00 0.04 0.00 34 1018.6
20260830165515 80 325 2.0 7.0 0.00 0.04 0.00 35 1018.7
20260830165020 80 348 2.0 7.0 0.00 0.04 0.00 35 1018.8
20260830164515 80 333 1.0 8.0 0.00 0.04 0.00 35 1018.8
20260830164010 79 222 2.0 8.0 0.00 0.04 0.00 36 1018.9
20260830163510 78 285 1.0 4.0 0.00 0.04 0.00 37 1018.9
20260830163024 78 290 1.0 8.0 0.00 0.04 0.00 37 1019.0
20260830162514 77 306 2.0 10.0 0.00 0.04 0.00 38 1019.0
20260830162016 76 342 3.0 10.0 0.00 0.04 0.00 38 1019.1
20260830161543 76 267 2.0 10.0 0.00 0.04 0.00 40 1019.2
20260830161017 76 228 2.0 9.0 0.00 0.04 0.00 40 1019.3
20260830160508 76 213 3.0 8.0 0.00 0.04 0.00 40 1019.5
20260830160018 75 169 1.0 11.0 0.00 0.04 0.00 39 1019.5
20260830155512 75 77 2.0 11.0 0.00 0.04 0.00 39 1019.6
20260830155017 75 233 4.0 10.0 0.00 0.04 0.00 40 1019.7
20260830154526 75 248 2.0 10.0 0.00 0.04 0.00 40 1019.7
20260830154017 75 268 3.0 11.0 0.00 0.04 0.00 40 1019.5
20260830153517 75 213 2.0 11.0 0.00 0.04 0.00 40 1019.6
20260830153011 75 277 3.0 14.0 0.00 0.04 0.00 40 1019.6
20260830152508 74 252 6.0 14.0 0.00 0.04 0.00 40 1019.6
20260830152009 74 299 2.0 9.0 0.00 0.04 0.00 42 1019.6
20260830151523 73 331 2.0 8.0 0.00 0.04 0.00 43 1019.6
20260830151011 72 169 2.0 12.0 0.00 0.04 0.00 46 1019.7
20260830150517 70 236 3.0 12.0 0.00 0.04 0.00 49 1019.8
20260830150031 69 180 2.0 3.0 0.00 0.04 0.00 53 1019.9
20260830145518 68 192 0.0 5.0 0.00 0.04 0.00 55 1019.8
20260830145006 67 182 1.0 5.0 0.00 0.04 0.00 58 1019.8
20260830144516 67 263 0.0 3.0 0.00 0.04 0.00 64 1019.6
20260830144013 66 268 0.0 3.0 0.00 0.04 0.00 66 1019.3
20260830143513 66 135 0.0 2.0 0.00 0.04 0.00 66 1019.4
20260830143026 66 107 0.0 2.0 0.00 0.04 0.00 66 1019.2
20260830142518 65 107 0.0 2.0 0.00 0.04 0.00 66 1019.0
20260830142019 65 107 0.0 2.0 0.00 0.04 0.00 66 1019.1
20260830141535 65 107 0.0 2.0 0.00 0.04 0.00 67 1018.9
20260830141008 65 195 0.0 2.0 0.00 0.04 0.00 66 1019.0
20260830140507 64 195 0.0 2.0 0.00 0.04 0.00 67 1019.2
20260830140021 64 195 0.0 2.0 0.00 0.04 0.00 67 1019.2
20260830135514 64 197 0.0 3.0 0.00 0.04 0.00 66 1019.4
20260830135013 63 261 1.0 3.0 0.00 0.04 0.00 65 1019.2
20260830134537 63 352 0.0 2.0 0.00 0.04 0.00 67 1019.1
20260830134014 63 352 0.0 2.0 0.00 0.04 0.00 68 1018.9
20260830133520 63 352 0.0 2.0 0.00 0.04 0.00 67 1019.1
20260830133032 62 352 0.0 2.0 0.00 0.04 0.00 66 1019.2
20260830132508 62 90 0.0 2.0 0.00 0.04 0.00 66 1019.1
20260830132014 62 97 0.0 2.0 0.00 0.04 0.00 66 1019.0
20260830131527 62 97 0.0 2.0 0.00 0.04 0.00 66 1018.9
20260830131019 62 97 0.0 2.0 0.00 0.04 0.00 65 1018.9
20260830130518 62 193 0.0 3.0 0.00 0.04 0.00 65 1018.9
20260830130035 62 193 0.0 3.0 0.00 0.04 0.00 66 1018.8
20260830125517 62 245 0.0 2.0 0.00 0.04 0.00 66 1018.9
20260830125020 62 205 0.0 2.0 0.00 0.04 0.00 65 1018.8
20260830124515 62 206 0.0 2.0 0.00 0.04 0.00 64 1018.8
20260830124011 62 193 0.0 2.0 0.00 0.04 0.00 64 1018.7
20260830123504 62 197 0.0 2.0 0.00 0.04 0.00 65 1018.7
20260830123004 62 197 0.0 2.0 0.00 0.04 0.00 64 1018.5
20260830122504 62 197 0.0 2.0 0.00 0.04 0.00 65 1018.5
20260830122004 62 117 0.0 2.0 0.00 0.04 0.00 65 1018.4
20260830121514 62 116 0.0 2.0 0.00 0.04 0.00 64 1018.2
20260830121007 62 118 0.0 2.0 0.00 0.04 0.00 64 1018.2
20260830120511 62 170 0.0 2.0 0.00 0.04 0.00 64 1018.2
20260830120024 62 170 0.0 2.0 0.00 0.04 0.00 63 1018.1
20260830115504 62 189 1.0 2.0 0.00 0.04 0.00 64 1018.2
20260830115004 62 160 0.0 2.0 0.00 0.04 0.00 63 1018.1
20260830114505 63 160 0.0 2.0 0.00 0.04 0.00 63 1018.1
20260830114008 63 160 0.0 1.0 0.00 0.04 0.00 62 1018.0
20260830113507 63 160 0.0 2.0 0.00 0.04 0.00 61 1018.0
20260830113019 63 160 0.0 2.0 0.00 0.04 0.00 62 1018.0
20260830112512 64 128 0.0 2.0 0.00 0.04 0.00 60 1018.0